Year,Month,Day,Hour,Minute,Value (Times are PST for temperature in C)
2011,12,14,00,00,1.10
2011,12,14,00,01,1.10
2011,12,14,00,02,1.10
2011,12,14,00,03,1.10
2011,12,14,00,04,1.10
2011,12,14,00,05,1.00
2011,12,14,00,06,1.00
2011,12,14,00,07,1.00
2011,12,14,00,08,1.00
2011,12,14,00,09,1.00
2011,12,14,00,10,1.00
2011,12,14,00,11,1.00
2011,12,14,00,12,1.00
2011,12,14,00,13,0.90
2011,12,14,00,14,0.90
2011,12,14,00,15,0.90
2011,12,14,00,16,0.90
2011,12,14,00,17,0.90
2011,12,14,00,18,0.90
2011,12,14,00,19,0.90
2011,12,14,00,20,0.90
2011,12,14,00,21,0.90
2011,12,14,00,22,0.90
2011,12,14,00,23,0.90
2011,12,14,00,24,0.90
2011,12,14,00,25,0.90
2011,12,14,00,26,0.80
2011,12,14,00,27,0.80
2011,12,14,00,28,0.80
2011,12,14,00,29,0.80
2011,12,14,00,30,0.80
2011,12,14,00,31,0.80
2011,12,14,00,32,0.80
2011,12,14,00,33,0.80
2011,12,14,00,34,0.80
2011,12,14,00,35,0.80
2011,12,14,00,36,0.80
2011,12,14,00,37,0.80
2011,12,14,00,38,0.80
2011,12,14,00,39,0.80
2011,12,14,00,40,0.80
2011,12,14,00,41,0.80
2011,12,14,00,42,0.80
2011,12,14,00,43,0.80
2011,12,14,00,44,0.80
2011,12,14,00,45,0.70
2011,12,14,00,46,0.70
2011,12,14,00,47,0.70
2011,12,14,00,48,0.70
2011,12,14,00,49,0.70
2011,12,14,00,50,0.70
2011,12,14,00,51,0.70
2011,12,14,00,52,0.70
2011,12,14,00,53,0.70
2011,12,14,00,54,0.70
2011,12,14,00,55,0.70
2011,12,14,00,56,0.70
2011,12,14,00,57,0.70
2011,12,14,00,58,0.60
2011,12,14,00,59,0.60
2011,12,14,01,00,0.60
2011,12,14,01,01,0.60
2011,12,14,01,02,0.60
2011,12,14,01,03,0.60
2011,12,14,01,04,0.60
2011,12,14,01,05,0.60
2011,12,14,01,06,0.60
2011,12,14,01,07,0.50
2011,12,14,01,08,0.50
2011,12,14,01,09,0.40
2011,12,14,01,10,0.40
2011,12,14,01,11,0.40
2011,12,14,01,12,0.40
2011,12,14,01,13,0.40
2011,12,14,01,14,0.40
2011,12,14,01,15,0.40
2011,12,14,01,16,0.40
2011,12,14,01,17,0.40
2011,12,14,01,18,0.40
2011,12,14,01,19,0.40
2011,12,14,01,20,0.40
2011,12,14,01,21,0.40
2011,12,14,01,22,0.40
2011,12,14,01,23,0.40
2011,12,14,01,24,0.40
2011,12,14,01,25,0.40
2011,12,14,01,26,0.40
2011,12,14,01,27,0.30
2011,12,14,01,28,0.30
2011,12,14,01,29,0.30
2011,12,14,01,30,0.30
2011,12,14,01,31,0.30
2011,12,14,01,32,0.30
2011,12,14,01,33,0.30
2011,12,14,01,34,0.30
2011,12,14,01,35,0.40
2011,12,14,01,36,0.40
2011,12,14,01,37,0.40
2011,12,14,01,38,0.40
2011,12,14,01,39,0.40
2011,12,14,01,40,0.40
2011,12,14,01,41,0.50
2011,12,14,01,42,0.50
2011,12,14,01,43,0.50
2011,12,14,01,44,0.50
2011,12,14,01,45,0.50
2011,12,14,01,46,0.50
2011,12,14,01,47,0.50
2011,12,14,01,48,0.50
2011,12,14,01,49,0.50
2011,12,14,01,50,0.50
2011,12,14,01,51,0.50
2011,12,14,01,52,0.60
2011,12,14,01,53,0.60
2011,12,14,01,54,0.60
2011,12,14,01,55,0.60
2011,12,14,01,56,0.70
2011,12,14,01,57,0.70
2011,12,14,01,58,0.70
2011,12,14,01,59,0.70
2011,12,14,02,00,0.70
2011,12,14,02,01,0.60
2011,12,14,02,02,0.60
2011,12,14,02,03,0.60
2011,12,14,02,04,0.60
2011,12,14,02,05,0.60
2011,12,14,02,06,0.60
2011,12,14,02,07,0.50
2011,12,14,02,08,0.50
2011,12,14,02,09,0.50
2011,12,14,02,10,0.50
2011,12,14,02,11,0.50
2011,12,14,02,12,0.50
2011,12,14,02,13,0.50
2011,12,14,02,14,0.60
2011,12,14,02,15,0.60
2011,12,14,02,16,0.60
2011,12,14,02,17,0.60
2011,12,14,02,18,0.60
2011,12,14,02,19,0.60
2011,12,14,02,20,0.60
2011,12,14,02,21,0.60
2011,12,14,02,22,0.60
2011,12,14,02,23,0.60
2011,12,14,02,24,0.70
2011,12,14,02,25,0.70
2011,12,14,02,26,0.70
2011,12,14,02,27,0.70
2011,12,14,02,28,0.70
2011,12,14,02,29,0.80
2011,12,14,02,30,0.80
2011,12,14,02,31,0.80
2011,12,14,02,32,0.80
2011,12,14,02,33,0.80
2011,12,14,02,34,0.80
2011,12,14,02,35,0.80
2011,12,14,02,36,0.80
2011,12,14,02,37,0.80
2011,12,14,02,38,0.80
2011,12,14,02,39,0.80
2011,12,14,02,40,0.90
2011,12,14,02,41,0.90
2011,12,14,02,42,0.90
2011,12,14,02,43,0.90
2011,12,14,02,44,0.90
2011,12,14,02,45,0.80
2011,12,14,02,46,0.80
2011,12,14,02,47,0.80
2011,12,14,02,48,0.80
2011,12,14,02,49,0.80
2011,12,14,02,50,0.80
2011,12,14,02,51,0.80
2011,12,14,02,52,0.80
2011,12,14,02,53,0.80
2011,12,14,02,54,0.80
2011,12,14,02,55,0.80
2011,12,14,02,56,0.80
2011,12,14,02,57,0.80
2011,12,14,02,58,0.80
2011,12,14,02,59,0.80
2011,12,14,03,00,0.80
2011,12,14,03,01,0.80
2011,12,14,03,02,0.80
2011,12,14,03,03,0.80
2011,12,14,03,04,0.80
2011,12,14,03,05,0.80
2011,12,14,03,06,0.80
2011,12,14,03,07,0.80
2011,12,14,03,08,0.80
2011,12,14,03,09,0.80
2011,12,14,03,10,0.80
2011,12,14,03,11,0.80
2011,12,14,03,12,0.80
2011,12,14,03,13,0.80
2011,12,14,03,14,0.80
2011,12,14,03,15,0.80
2011,12,14,03,16,0.80
2011,12,14,03,17,0.80
2011,12,14,03,18,0.80
2011,12,14,03,19,0.80
2011,12,14,03,20,0.80
2011,12,14,03,21,0.80
2011,12,14,03,22,0.80
2011,12,14,03,23,0.80
2011,12,14,03,24,0.80
2011,12,14,03,25,0.80
2011,12,14,03,26,0.80
2011,12,14,03,27,0.80
2011,12,14,03,28,0.80
2011,12,14,03,29,0.90
2011,12,14,03,30,0.90
2011,12,14,03,31,0.90
2011,12,14,03,32,0.90
2011,12,14,03,33,0.90
2011,12,14,03,34,0.90
2011,12,14,03,35,0.90
2011,12,14,03,36,0.90
2011,12,14,03,37,0.90
2011,12,14,03,38,0.90
2011,12,14,03,39,0.90
2011,12,14,03,40,0.90
2011,12,14,03,41,0.90
2011,12,14,03,42,0.80
2011,12,14,03,43,0.80
2011,12,14,03,44,0.80
2011,12,14,03,45,0.80
2011,12,14,03,46,0.80
2011,12,14,03,47,0.80
2011,12,14,03,48,0.80
2011,12,14,03,49,0.80
2011,12,14,03,50,0.70
2011,12,14,03,51,0.70
2011,12,14,03,52,0.70
2011,12,14,03,53,0.70
2011,12,14,03,54,0.60
2011,12,14,03,55,0.60
2011,12,14,03,56,0.60
2011,12,14,03,57,0.60
2011,12,14,03,58,0.60
2011,12,14,03,59,0.60
2011,12,14,04,00,0.60
2011,12,14,04,01,0.50
2011,12,14,04,02,0.50
2011,12,14,04,03,0.50
2011,12,14,04,04,0.50
2011,12,14,04,05,0.40
2011,12,14,04,06,0.40
2011,12,14,04,07,0.40
2011,12,14,04,08,0.40
2011,12,14,04,09,0.40
2011,12,14,04,10,0.40
2011,12,14,04,11,0.40
2011,12,14,04,12,0.30
2011,12,14,04,13,0.30
2011,12,14,04,14,0.30
2011,12,14,04,15,0.30
2011,12,14,04,16,0.40
2011,12,14,04,17,0.40
2011,12,14,04,18,0.40
2011,12,14,04,19,0.40
2011,12,14,04,20,0.50
2011,12,14,04,21,0.50
2011,12,14,04,22,0.50
2011,12,14,04,23,0.50
2011,12,14,04,24,0.50
2011,12,14,04,25,0.50
2011,12,14,04,26,0.50
2011,12,14,04,27,0.50
2011,12,14,04,28,0.50
2011,12,14,04,29,0.50
2011,12,14,04,30,0.40
2011,12,14,04,31,0.40
2011,12,14,04,32,0.40
2011,12,14,04,33,0.40
2011,12,14,04,34,0.40
2011,12,14,04,35,0.40
2011,12,14,04,36,0.30
2011,12,14,04,37,0.30
2011,12,14,04,38,0.30
2011,12,14,04,39,0.30
2011,12,14,04,40,0.30
2011,12,14,04,41,0.40
2011,12,14,04,42,0.40
2011,12,14,04,43,0.40
2011,12,14,04,44,0.40
2011,12,14,04,45,0.40
2011,12,14,04,46,0.40
2011,12,14,04,47,0.40
2011,12,14,04,48,0.40
2011,12,14,04,49,0.40
2011,12,14,04,50,0.40
2011,12,14,04,51,0.40
2011,12,14,04,52,0.40
2011,12,14,04,53,0.30
2011,12,14,04,54,0.30
2011,12,14,04,55,0.30
2011,12,14,04,56,0.20
2011,12,14,04,57,0.20
2011,12,14,04,58,0.20
2011,12,14,04,59,0.20
2011,12,14,05,00,0.20
2011,12,14,05,01,0.20
2011,12,14,05,02,0.10
2011,12,14,05,03,0.10
2011,12,14,05,04,0.10
2011,12,14,05,05,0.10
2011,12,14,05,06,0.10
2011,12,14,05,07,0.10
2011,12,14,05,08,0.10
2011,12,14,05,09,0.10
2011,12,14,05,10,0.10
2011,12,14,05,11,0.10
2011,12,14,05,12,0.10
2011,12,14,05,13,0.10
2011,12,14,05,14,0.10
2011,12,14,05,15,0.10
2011,12,14,05,16,0.10
2011,12,14,05,17,0.10
2011,12,14,05,18,0.20
2011,12,14,05,19,0.20
2011,12,14,05,20,0.20
2011,12,14,05,21,0.20
2011,12,14,05,22,0.20
2011,12,14,05,23,0.20
2011,12,14,05,24,0.20
2011,12,14,05,25,0.30
2011,12,14,05,26,0.30
2011,12,14,05,27,0.40
2011,12,14,05,28,0.40
2011,12,14,05,29,0.40
2011,12,14,05,30,0.40
2011,12,14,05,31,0.40
2011,12,14,05,32,0.40
2011,12,14,05,33,0.40
2011,12,14,05,34,0.40
2011,12,14,05,35,0.40
2011,12,14,05,36,0.50
2011,12,14,05,37,0.50
2011,12,14,05,38,0.50
2011,12,14,05,39,0.60
2011,12,14,05,40,0.60
2011,12,14,05,41,0.60
2011,12,14,05,42,0.60
2011,12,14,05,43,0.60
2011,12,14,05,44,0.60
2011,12,14,05,45,0.60
2011,12,14,05,46,0.60
2011,12,14,05,47,0.60
2011,12,14,05,48,0.70
2011,12,14,05,49,0.70
2011,12,14,05,50,0.80
2011,12,14,05,51,0.80
2011,12,14,05,52,0.80
2011,12,14,05,53,0.80
2011,12,14,05,54,0.90
2011,12,14,05,55,0.90
2011,12,14,05,56,0.90
2011,12,14,05,57,0.90
2011,12,14,05,58,1.00
2011,12,14,05,59,1.00
2011,12,14,06,00,1.10
2011,12,14,06,01,1.10
2011,12,14,06,02,1.10
2011,12,14,06,03,1.10
2011,12,14,06,04,1.10
2011,12,14,06,05,1.10
2011,12,14,06,06,1.10
2011,12,14,06,07,1.10
2011,12,14,06,08,1.20
2011,12,14,06,09,1.10
2011,12,14,06,10,1.10
2011,12,14,06,11,1.10
2011,12,14,06,12,1.10
2011,12,14,06,13,1.10
2011,12,14,06,14,1.10
2011,12,14,06,15,1.10
2011,12,14,06,16,1.10
2011,12,14,06,17,1.10
2011,12,14,06,18,1.10
2011,12,14,06,19,1.10
2011,12,14,06,20,1.10
2011,12,14,06,21,1.10
2011,12,14,06,22,1.10
2011,12,14,06,23,1.10
2011,12,14,06,24,1.10
2011,12,14,06,25,1.10
2011,12,14,06,26,1.10
2011,12,14,06,27,1.10
2011,12,14,06,28,1.10
2011,12,14,06,29,1.10
2011,12,14,06,30,1.10
2011,12,14,06,31,1.10
2011,12,14,06,32,1.20
2011,12,14,06,33,1.20
2011,12,14,06,34,1.20
2011,12,14,06,35,1.20
2011,12,14,06,36,1.20
2011,12,14,06,37,1.20
2011,12,14,06,38,1.20
2011,12,14,06,39,1.20
2011,12,14,06,40,1.20
2011,12,14,06,41,1.20
2011,12,14,06,42,1.20
2011,12,14,06,43,1.30
2011,12,14,06,44,1.30
2011,12,14,06,45,1.30
2011,12,14,06,46,1.30
2011,12,14,06,47,1.30
2011,12,14,06,48,1.30
2011,12,14,06,49,1.30
2011,12,14,06,50,1.30
2011,12,14,06,51,1.30
2011,12,14,06,52,1.30
2011,12,14,06,53,1.30
2011,12,14,06,54,1.30
2011,12,14,06,55,1.30
2011,12,14,06,56,1.30
2011,12,14,06,57,1.30
2011,12,14,06,58,1.30
2011,12,14,06,59,1.30
2011,12,14,07,00,1.30
2011,12,14,07,01,1.30
2011,12,14,07,02,1.30
2011,12,14,07,03,1.30
2011,12,14,07,04,1.30
2011,12,14,07,05,1.30
2011,12,14,07,06,1.30
2011,12,14,07,07,1.30
2011,12,14,07,08,1.40
2011,12,14,07,09,1.40
2011,12,14,07,10,1.40
2011,12,14,07,11,1.40
2011,12,14,07,12,1.40
2011,12,14,07,13,1.40
2011,12,14,07,14,1.40
2011,12,14,07,15,1.40
2011,12,14,07,16,1.40
2011,12,14,07,17,1.40
2011,12,14,07,18,1.40
2011,12,14,07,19,1.50
2011,12,14,07,20,1.50
2011,12,14,07,21,1.50
2011,12,14,07,22,1.50
2011,12,14,07,23,1.50
2011,12,14,07,24,1.50
2011,12,14,07,25,1.40
2011,12,14,07,26,1.40
2011,12,14,07,27,1.40
2011,12,14,07,28,1.40
2011,12,14,07,29,1.40
2011,12,14,07,30,1.50
2011,12,14,07,31,1.50
2011,12,14,07,32,1.50
2011,12,14,07,33,1.50
2011,12,14,07,34,1.50
2011,12,14,07,35,1.50
2011,12,14,07,36,1.50
2011,12,14,07,37,1.60
2011,12,14,07,38,1.60
2011,12,14,07,39,1.60
2011,12,14,07,40,1.70
2011,12,14,07,41,1.70
2011,12,14,07,42,1.70
2011,12,14,07,43,1.70
2011,12,14,07,44,1.70
2011,12,14,07,45,1.70
2011,12,14,07,46,1.70
2011,12,14,07,47,1.70
2011,12,14,07,48,1.70
2011,12,14,07,49,1.70
2011,12,14,07,50,1.70
2011,12,14,07,51,1.70
2011,12,14,07,52,1.70
2011,12,14,07,53,1.70
2011,12,14,07,54,1.80
2011,12,14,07,55,1.80
2011,12,14,07,56,1.80
2011,12,14,07,57,1.80
2011,12,14,07,58,1.80
2011,12,14,07,59,1.80
2011,12,14,08,00,1.80
2011,12,14,08,01,1.80
2011,12,14,08,02,1.80
2011,12,14,08,03,1.80
2011,12,14,08,04,1.80
2011,12,14,08,05,1.80
2011,12,14,08,06,1.80
2011,12,14,08,07,1.80
2011,12,14,08,08,1.80
2011,12,14,08,09,1.80
2011,12,14,08,10,1.80
2011,12,14,08,11,1.80
2011,12,14,08,12,1.80
2011,12,14,08,13,1.80
2011,12,14,08,14,1.80
2011,12,14,08,15,1.80
2011,12,14,08,16,1.80
2011,12,14,08,17,1.80
2011,12,14,08,18,1.80
2011,12,14,08,19,1.80
2011,12,14,08,20,1.80
2011,12,14,08,21,1.80
2011,12,14,08,22,1.80
2011,12,14,08,23,1.90
2011,12,14,08,24,1.90
2011,12,14,08,25,1.90
2011,12,14,08,26,1.90
2011,12,14,08,27,1.90
2011,12,14,08,28,1.90
2011,12,14,08,29,1.90
2011,12,14,08,30,1.90
2011,12,14,08,31,1.90
2011,12,14,08,32,1.90
2011,12,14,08,33,1.90
2011,12,14,08,34,1.90
2011,12,14,08,35,1.90
2011,12,14,08,36,1.90
2011,12,14,08,37,1.90
2011,12,14,08,38,1.90
2011,12,14,08,39,1.90
2011,12,14,08,40,1.90
2011,12,14,08,41,1.90
2011,12,14,08,42,1.90
2011,12,14,08,43,1.90
2011,12,14,08,44,2.00
2011,12,14,08,45,2.00
2011,12,14,08,46,2.00
2011,12,14,08,47,2.00
2011,12,14,08,48,2.10
2011,12,14,08,49,2.10
2011,12,14,08,50,2.10
2011,12,14,08,51,2.10
2011,12,14,08,52,2.10
2011,12,14,08,53,2.10
2011,12,14,08,54,2.10
2011,12,14,08,55,2.20
2011,12,14,08,56,2.20
2011,12,14,08,57,2.20
2011,12,14,08,58,2.20
2011,12,14,08,59,2.20
2011,12,14,09,00,2.20
2011,12,14,09,01,2.30
2011,12,14,09,02,2.30
2011,12,14,09,03,2.30
2011,12,14,09,04,2.30
2011,12,14,09,05,2.30
2011,12,14,09,06,2.30
2011,12,14,09,07,2.30
2011,12,14,09,08,2.30
2011,12,14,09,09,2.30
2011,12,14,09,10,2.30
2011,12,14,09,11,2.30
2011,12,14,09,12,2.30
2011,12,14,09,13,2.30
2011,12,14,09,14,2.30
2011,12,14,09,15,2.30
2011,12,14,09,16,2.30
2011,12,14,09,17,2.30
2011,12,14,09,18,2.30
2011,12,14,09,19,2.30
2011,12,14,09,20,2.30
2011,12,14,09,21,2.40
2011,12,14,09,22,2.40
2011,12,14,09,23,2.40
2011,12,14,09,24,2.40
2011,12,14,09,25,2.40
2011,12,14,09,26,2.40
2011,12,14,09,27,2.40
2011,12,14,09,28,2.40
2011,12,14,09,29,2.40
2011,12,14,09,30,2.50
2011,12,14,09,31,2.50
2011,12,14,09,32,2.50
2011,12,14,09,33,2.50
2011,12,14,09,34,2.50
2011,12,14,09,35,2.60
2011,12,14,09,36,2.60
2011,12,14,09,37,2.60
2011,12,14,09,38,2.60
2011,12,14,09,39,2.60
2011,12,14,09,40,2.60
2011,12,14,09,41,2.60
2011,12,14,09,42,2.60
2011,12,14,09,43,2.70
2011,12,14,09,44,2.70
2011,12,14,09,45,2.70
2011,12,14,09,46,2.70
2011,12,14,09,47,2.70
2011,12,14,09,48,2.70
2011,12,14,09,49,2.70
2011,12,14,09,50,2.70
2011,12,14,09,51,2.70
2011,12,14,09,52,2.70
2011,12,14,09,53,2.70
2011,12,14,09,54,2.70
2011,12,14,09,55,2.70
2011,12,14,09,56,2.70
2011,12,14,09,57,2.70
2011,12,14,09,58,2.70
2011,12,14,09,59,2.70
2011,12,14,10,00,2.70
2011,12,14,10,01,2.80
2011,12,14,10,02,2.80
2011,12,14,10,03,2.80
2011,12,14,10,04,2.80
2011,12,14,10,05,2.80
2011,12,14,10,06,2.80
2011,12,14,10,07,2.80
2011,12,14,10,08,2.80
2011,12,14,10,09,2.80
2011,12,14,10,10,2.80
2011,12,14,10,11,2.90
2011,12,14,10,12,2.90
2011,12,14,10,13,2.90
2011,12,14,10,14,3.00
2011,12,14,10,15,3.00
2011,12,14,10,16,3.00
2011,12,14,10,17,3.10
2011,12,14,10,18,3.10
2011,12,14,10,19,3.10
2011,12,14,10,20,3.10
2011,12,14,10,21,3.10
2011,12,14,10,22,3.10
2011,12,14,10,23,3.10
2011,12,14,10,24,3.10
2011,12,14,10,25,3.20
2011,12,14,10,26,3.20
2011,12,14,10,27,3.20
2011,12,14,10,28,3.20
2011,12,14,10,29,3.20
2011,12,14,10,30,3.20
2011,12,14,10,31,3.20
2011,12,14,10,32,3.20
2011,12,14,10,33,3.20
2011,12,14,10,34,3.20
2011,12,14,10,35,3.20
2011,12,14,10,36,3.20
2011,12,14,10,37,3.20
2011,12,14,10,38,3.20
2011,12,14,10,39,3.20
2011,12,14,10,40,3.20
2011,12,14,10,41,3.20
2011,12,14,10,42,3.20
2011,12,14,10,43,3.20
2011,12,14,10,44,3.20
2011,12,14,10,45,3.30
2011,12,14,10,46,3.30
2011,12,14,10,47,3.30
2011,12,14,10,48,3.30
2011,12,14,10,49,3.30
2011,12,14,10,50,3.40
2011,12,14,10,51,3.40
2011,12,14,10,52,3.40
2011,12,14,10,53,3.40
2011,12,14,10,54,3.50
2011,12,14,10,55,3.50
2011,12,14,10,56,3.50
2011,12,14,10,57,3.50
2011,12,14,10,58,3.50
2011,12,14,10,59,3.50
2011,12,14,11,00,3.50
2011,12,14,11,01,3.60
2011,12,14,11,02,3.60
2011,12,14,11,03,3.60
2011,12,14,11,04,3.60
2011,12,14,11,05,3.60
2011,12,14,11,06,3.60
2011,12,14,11,07,3.60
2011,12,14,11,08,3.60
2011,12,14,11,09,3.60
2011,12,14,11,10,3.60
2011,12,14,11,11,3.70
2011,12,14,11,12,3.70
2011,12,14,11,13,3.70
2011,12,14,11,14,3.70
2011,12,14,11,15,3.70
2011,12,14,11,16,3.80
2011,12,14,11,17,3.80
2011,12,14,11,18,3.80
2011,12,14,11,19,3.80
2011,12,14,11,20,3.80
2011,12,14,11,21,3.80
2011,12,14,11,22,3.80
2011,12,14,11,23,3.80
2011,12,14,11,24,3.90
2011,12,14,11,25,3.90
2011,12,14,11,26,3.90
2011,12,14,11,27,3.90
2011,12,14,11,28,4.00
2011,12,14,11,29,4.00
2011,12,14,11,30,4.00
2011,12,14,11,31,4.10
2011,12,14,11,32,4.10
2011,12,14,11,33,4.10
2011,12,14,11,34,4.10
2011,12,14,11,35,4.10
2011,12,14,11,36,4.10
2011,12,14,11,37,4.20
2011,12,14,11,38,4.20
2011,12,14,11,39,4.20
2011,12,14,11,40,4.20
2011,12,14,11,41,4.20
2011,12,14,11,42,4.20
2011,12,14,11,43,4.20
2011,12,14,11,44,4.20
2011,12,14,11,45,4.20
2011,12,14,11,46,4.30
2011,12,14,11,47,4.30
2011,12,14,11,48,4.30
2011,12,14,11,49,4.30
2011,12,14,11,50,4.30
2011,12,14,11,51,4.30
2011,12,14,11,52,4.30
2011,12,14,11,53,4.30
2011,12,14,11,54,4.30
2011,12,14,11,55,4.30
2011,12,14,11,56,4.30
2011,12,14,11,57,4.30
2011,12,14,11,58,4.30
2011,12,14,11,59,4.40
2011,12,14,12,00,4.40
2011,12,14,12,01,4.40
2011,12,14,12,02,4.40
2011,12,14,12,03,4.40
2011,12,14,12,04,4.40
2011,12,14,12,05,4.40
2011,12,14,12,06,4.40
2011,12,14,12,07,4.40
2011,12,14,12,08,4.40
2011,12,14,12,09,4.40
2011,12,14,12,10,4.40
2011,12,14,12,11,4.40
2011,12,14,12,12,4.40
2011,12,14,12,13,4.40
2011,12,14,12,14,4.40
2011,12,14,12,15,4.40
2011,12,14,12,16,4.40
2011,12,14,12,17,4.40
2011,12,14,12,18,4.50
2011,12,14,12,19,4.50
2011,12,14,12,20,4.50
2011,12,14,12,21,4.50
2011,12,14,12,22,4.50
2011,12,14,12,23,4.40
2011,12,14,12,24,4.50
2011,12,14,12,25,4.40
2011,12,14,12,26,4.50
2011,12,14,12,27,4.40
2011,12,14,12,28,4.40
2011,12,14,12,29,4.40
2011,12,14,12,30,4.40
2011,12,14,12,31,4.40
2011,12,14,12,32,4.40
2011,12,14,12,33,4.40
2011,12,14,12,34,4.40
2011,12,14,12,35,4.40
2011,12,14,12,36,4.40
2011,12,14,12,37,4.40
2011,12,14,12,38,4.40
2011,12,14,12,39,4.40
2011,12,14,12,40,4.40
2011,12,14,12,41,4.40
2011,12,14,12,42,4.40
2011,12,14,12,43,4.40
2011,12,14,12,44,4.40
2011,12,14,12,45,4.40
2011,12,14,12,46,4.40
2011,12,14,12,47,4.40
2011,12,14,12,48,4.40
2011,12,14,12,49,4.40
2011,12,14,12,50,4.40
2011,12,14,12,51,4.40
2011,12,14,12,52,4.40
2011,12,14,12,53,4.40
2011,12,14,12,54,4.40
2011,12,14,12,55,4.40
2011,12,14,12,56,4.40
2011,12,14,12,57,4.40
2011,12,14,12,58,4.40
2011,12,14,12,59,4.40
2011,12,14,13,00,4.40
2011,12,14,13,01,4.40
2011,12,14,13,02,4.40
2011,12,14,13,03,4.40
2011,12,14,13,04,4.40
2011,12,14,13,05,4.40
2011,12,14,13,06,4.40
2011,12,14,13,07,4.50
2011,12,14,13,08,4.50
2011,12,14,13,09,4.50
2011,12,14,13,10,4.50
2011,12,14,13,11,4.50
2011,12,14,13,12,4.50
2011,12,14,13,13,4.50
2011,12,14,13,14,4.50
2011,12,14,13,15,4.50
2011,12,14,13,16,4.50
2011,12,14,13,17,4.50
2011,12,14,13,18,4.50
2011,12,14,13,19,4.50
2011,12,14,13,20,4.50
2011,12,14,13,21,4.50
2011,12,14,13,22,4.50
2011,12,14,13,23,4.50
2011,12,14,13,24,4.50
2011,12,14,13,25,4.50
2011,12,14,13,26,4.50
2011,12,14,13,27,4.50
2011,12,14,13,28,4.50
2011,12,14,13,29,4.50
2011,12,14,13,30,4.50
2011,12,14,13,31,4.50
2011,12,14,13,32,4.40
2011,12,14,13,33,4.40
2011,12,14,13,34,4.40
2011,12,14,13,35,4.40
2011,12,14,13,36,4.40
2011,12,14,13,37,4.40
2011,12,14,13,38,4.40
2011,12,14,13,39,4.40
2011,12,14,13,40,4.40
2011,12,14,13,41,4.40
2011,12,14,13,42,4.40
2011,12,14,13,43,4.40
2011,12,14,13,44,4.40
2011,12,14,13,45,4.40
2011,12,14,13,46,4.40
2011,12,14,13,47,4.40
2011,12,14,13,48,4.40
2011,12,14,13,49,4.40
2011,12,14,13,50,4.40
2011,12,14,13,51,4.40
2011,12,14,13,52,4.40
2011,12,14,13,53,4.40
2011,12,14,13,54,4.40
2011,12,14,13,55,4.40
2011,12,14,13,56,4.40
2011,12,14,13,57,4.40
2011,12,14,13,58,4.40
2011,12,14,13,59,4.40
2011,12,14,14,00,4.40
2011,12,14,14,01,4.40
2011,12,14,14,02,4.40
2011,12,14,14,03,4.40
2011,12,14,14,04,4.40
2011,12,14,14,05,4.40
2011,12,14,14,06,4.40
2011,12,14,14,07,4.40
2011,12,14,14,08,4.40
2011,12,14,14,09,4.40
2011,12,14,14,10,4.40
2011,12,14,14,11,4.40
2011,12,14,14,12,4.40
2011,12,14,14,13,4.50
2011,12,14,14,14,4.50
2011,12,14,14,15,4.50
2011,12,14,14,16,4.50
2011,12,14,14,17,4.50
2011,12,14,14,18,4.50
2011,12,14,14,19,4.50
2011,12,14,14,20,4.50
2011,12,14,14,21,4.50
2011,12,14,14,22,4.40
2011,12,14,14,23,4.40
2011,12,14,14,24,4.50
2011,12,14,14,25,4.50
2011,12,14,14,26,4.50
2011,12,14,14,27,4.50
2011,12,14,14,28,4.40
2011,12,14,14,29,4.40
2011,12,14,14,30,4.40
2011,12,14,14,31,4.40
2011,12,14,14,32,4.40
2011,12,14,14,33,4.40
2011,12,14,14,34,4.40
2011,12,14,14,35,4.40
2011,12,14,14,36,4.40
2011,12,14,14,37,4.30
2011,12,14,14,38,4.30
2011,12,14,14,39,4.30
2011,12,14,14,40,4.30
2011,12,14,14,41,4.30
2011,12,14,14,42,4.30
2011,12,14,14,43,4.30
2011,12,14,14,44,4.30
2011,12,14,14,45,4.30
2011,12,14,14,46,4.30
2011,12,14,14,47,4.20
2011,12,14,14,48,4.20
2011,12,14,14,49,4.20
2011,12,14,14,50,4.20
2011,12,14,14,51,4.20
2011,12,14,14,52,4.20
2011,12,14,14,53,4.20
2011,12,14,14,54,4.20
2011,12,14,14,55,4.20
2011,12,14,14,56,4.20
2011,12,14,14,57,4.20
2011,12,14,14,58,4.20
2011,12,14,14,59,4.20
2011,12,14,15,00,4.20
2011,12,14,15,01,4.10
2011,12,14,15,02,4.10
2011,12,14,15,03,4.10
2011,12,14,15,04,4.10
2011,12,14,15,05,4.10
2011,12,14,15,06,4.10
2011,12,14,15,07,4.10
2011,12,14,15,08,4.10
2011,12,14,15,09,4.00
2011,12,14,15,10,4.00
2011,12,14,15,11,4.00
2011,12,14,15,12,4.00
2011,12,14,15,13,4.00
2011,12,14,15,14,4.00
2011,12,14,15,15,3.90
2011,12,14,15,16,3.90
2011,12,14,15,17,3.90
2011,12,14,15,18,3.90
2011,12,14,15,19,3.90
2011,12,14,15,20,3.90
2011,12,14,15,21,3.90
2011,12,14,15,22,3.90
2011,12,14,15,23,3.90
2011,12,14,15,24,3.90
2011,12,14,15,25,3.90
2011,12,14,15,26,3.80
2011,12,14,15,27,3.80
2011,12,14,15,28,3.80
2011,12,14,15,29,3.80
2011,12,14,15,30,3.80
2011,12,14,15,31,3.80
2011,12,14,15,32,3.80
2011,12,14,15,33,3.80
2011,12,14,15,34,3.80
2011,12,14,15,35,3.80
2011,12,14,15,36,3.80
2011,12,14,15,37,3.80
2011,12,14,15,38,3.80
2011,12,14,15,39,3.80
2011,12,14,15,40,3.80
2011,12,14,15,41,3.80
2011,12,14,15,42,3.80
2011,12,14,15,43,3.80
2011,12,14,15,44,3.80
2011,12,14,15,45,3.80
2011,12,14,15,46,3.80
2011,12,14,15,47,3.80
2011,12,14,15,48,3.80
2011,12,14,15,49,3.80
2011,12,14,15,50,3.70
2011,12,14,15,51,3.70
2011,12,14,15,52,3.70
2011,12,14,15,53,3.70
2011,12,14,15,54,3.70
2011,12,14,15,55,3.70
2011,12,14,15,56,3.70
2011,12,14,15,57,3.70
2011,12,14,15,58,3.70
2011,12,14,15,59,3.80
2011,12,14,16,00,3.80
2011,12,14,16,01,3.80
2011,12,14,16,02,3.80
2011,12,14,16,03,3.80
2011,12,14,16,04,3.80
2011,12,14,16,05,3.80
2011,12,14,16,06,3.80
2011,12,14,16,07,3.80
2011,12,14,16,08,3.80
2011,12,14,16,09,3.80
2011,12,14,16,10,3.80
2011,12,14,16,11,3.80
2011,12,14,16,12,3.80
2011,12,14,16,13,3.80
2011,12,14,16,14,3.80
2011,12,14,16,15,3.80
2011,12,14,16,16,3.80
2011,12,14,16,17,3.80
2011,12,14,16,18,3.70
2011,12,14,16,19,3.70
2011,12,14,16,20,3.60
2011,12,14,16,21,3.60
2011,12,14,16,22,3.60
2011,12,14,16,23,3.60
2011,12,14,16,24,3.60
2011,12,14,16,25,3.60
2011,12,14,16,26,3.50
2011,12,14,16,27,3.50
2011,12,14,16,28,3.50
2011,12,14,16,29,3.50
2011,12,14,16,30,3.40
2011,12,14,16,31,3.40
2011,12,14,16,32,3.30
2011,12,14,16,33,3.30
2011,12,14,16,34,3.30
2011,12,14,16,35,3.20
2011,12,14,16,36,3.20
2011,12,14,16,37,3.20
2011,12,14,16,38,3.20
2011,12,14,16,39,3.10
2011,12,14,16,40,3.10
2011,12,14,16,41,3.10
2011,12,14,16,42,3.10
2011,12,14,16,43,3.00
2011,12,14,16,44,3.00
2011,12,14,16,45,2.90
2011,12,14,16,46,2.90
2011,12,14,16,47,2.90
2011,12,14,16,48,2.90
2011,12,14,16,49,2.90
2011,12,14,16,50,2.90
2011,12,14,16,51,2.90
2011,12,14,16,52,2.90
2011,12,14,16,53,2.90
2011,12,14,16,54,2.90
2011,12,14,16,55,2.90
2011,12,14,16,56,2.90
2011,12,14,16,57,2.90
2011,12,14,16,58,2.90
2011,12,14,16,59,2.90
2011,12,14,17,00,2.90
2011,12,14,17,01,2.90
2011,12,14,17,02,2.90
2011,12,14,17,03,2.90
2011,12,14,17,04,2.90
2011,12,14,17,05,2.90
2011,12,14,17,06,2.90
2011,12,14,17,07,2.90
2011,12,14,17,08,2.90
2011,12,14,17,09,2.90
2011,12,14,17,10,2.90
2011,12,14,17,11,2.90
2011,12,14,17,12,2.90
2011,12,14,17,13,2.90
2011,12,14,17,14,2.90
2011,12,14,17,15,2.90
2011,12,14,17,16,2.90
2011,12,14,17,17,2.90
2011,12,14,17,18,2.90
2011,12,14,17,19,2.90
2011,12,14,17,20,2.90
2011,12,14,17,21,2.90
2011,12,14,17,22,2.90
2011,12,14,17,23,2.90
2011,12,14,17,24,2.90
2011,12,14,17,25,2.90
2011,12,14,17,26,2.90
2011,12,14,17,27,2.90
2011,12,14,17,28,2.90
2011,12,14,17,29,2.80
2011,12,14,17,30,2.80
2011,12,14,17,31,2.80
2011,12,14,17,32,2.80
2011,12,14,17,33,2.80
2011,12,14,17,34,2.80
2011,12,14,17,35,2.80
2011,12,14,17,36,2.80
2011,12,14,17,37,2.80
2011,12,14,17,38,2.80
2011,12,14,17,39,2.80
2011,12,14,17,40,2.70
2011,12,14,17,41,2.70
2011,12,14,17,42,2.70
2011,12,14,17,43,2.70
2011,12,14,17,44,2.70
2011,12,14,17,45,2.70
2011,12,14,17,46,2.70
2011,12,14,17,47,2.70
2011,12,14,17,48,2.70
2011,12,14,17,49,2.70
2011,12,14,17,50,2.70
2011,12,14,17,51,2.70
2011,12,14,17,52,2.70
2011,12,14,17,53,2.70
2011,12,14,17,54,2.70
2011,12,14,17,55,2.70
2011,12,14,17,56,2.70
2011,12,14,17,57,2.70
2011,12,14,17,58,2.70
2011,12,14,17,59,2.60
2011,12,14,18,00,2.60
2011,12,14,18,01,2.70
2011,12,14,18,02,2.60
2011,12,14,18,03,2.60
2011,12,14,18,04,2.70
2011,12,14,18,05,2.70
2011,12,14,18,06,2.70